Dewpoint
44 45 47 50 51 53 54 55 56 56 57 58 58 58 58 58 59 59 60 60 60 59 57 57 57 58 58 58 59 59 59 59 59 59 59 59 58 58 58 58 58 58 58 57 57 57 57 57 57 56 56 56 56 56 56 57 57 57 58 58 58 58 57 57 57 57 57 56 56 56 56 56 55 55 55 55 54 54 54 54 54 53 53 53 53 53
43 45 47 50 51 52 53 55 56 56 57 57 56 56 56 57 58 59 59 60 59 58 56 56 56 57 57 57 58 58 58 58 58 58 58 58 58 58 58 58 58 57 57 57 57 57 56 56 56 56 56 56 56 56 56 56 56 57 57 57 57 57 57 56 56 56 56 56 56 56 55 55 55 54 54 54 54 53 53 53 53 53 53 53 53 53
42 43 46 49 51 52 53 54 56 56 57 56 56 55 54 55 56 58 59 59 59 58 56 56 56 56 56 57 57 58 58 58 58 58 58 58 57 57 57 57 57 57 57 57 57 56 56 56 56 56 56 56 56 56 56 56 56 56 56 56 56 56 56 56 56 56 56 56 55 55 55 54 54 54 53 53 53 52 52 52 52 52 52 52 52 52
41 42 45 48 50 52 53 54 55 56 57 56 55 54 53 53 55 57 59 59 58 57 57 56 56 56 56 56 57 57 58 58 57 57 57 57 57 57 57 57 57 57 57 56 56 56 56 56 56 55 55 55 55 55 55 56 56 56 56 56 55 55 55 55 55 55 55 55 55 54 54 54 53 53 53 52 52 52 52 51 51 51 51 51 51 51
42 42 44 47 49 51 53 54 55 56 57 57 56 55 54 53 54 56 58 58 57 56 56 56 56 55 55 56 56 57 57 57 57 57 57 57 57 56 56 56 56 56 56 56 56 56 56 56 55 55 55 55 55 55 55 55 55 55 55 55 55 54 54 54 54 54 54 54 54 54 54 53 53 53 52 52 52 51 51 51 51 51 51 51 51 51
42 42 44 47 49 51 53 53 54 56 56 56 56 56 55 54 55 56 57 57 56 54 54 54 54 54 54 55 56 57 57 57 57 57 56 56 56 56 56 56 56 56 56 56 56 56 55 55 55 55 55 55 55 55 55 55 55 55 54 54 54 54 54 54 54 54 54 54 54 53 53 53 53 53 52 52 51 51 51 51 50 50 50 50 50 50
44 43 45 47 49 51 52 52 53 55 55 55 55 55 56 56 56 56 56 55 53 51 51 51 51 51 51 54 55 56 57 57 56 56 56 56 56 56 56 56 56 56 56 56 55 55 55 55 55 54 54 55 55 55 55 55 54 54 54 53 53 53 53 53 53 53 53 53 53 53 53 53 53 53 52 52 52 51 51 51 50 50 49 50 50 50
46 45 45 47 49 51 52 52 53 54 54 54 54 54 54 55 56 56 54 52 51 50 50 49 49 49 50 52 54 55 56 56 56 56 56 56 56 56 56 56 56 55 55 55 55 55 55 54 54 54 54 54 54 55 55 54 54 53 53 53 52 52 53 53 53 53 53 53 52 52 52 52 52 52 52 52 52 51 51 51 50 50 49 49 49 49
47 47 47 47 48 50 51 52 53 54 54 53 53 53 53 53 54 54 52 51 49 49 49 48 48 48 49 51 52 53 53 54 54 54 54 54 54 55 55 55 55 55 55 55 55 55 55 54 54 54 54 54 54 54 54 54 53 53 52 52 52 52 52 52 52 52 52 52 52 52 52 52 52 52 52 52 52 51 51 51 50 49 49 49 49 49
47 47 47 47 47 49 50 51 52 53 54 53 53 53 52 52 52 51 49 48 48 49 48 48 47 47 47 48 49 50 51 51 52 53 53 54 54 54 54 54 54 54 55 55 55 55 54 54 54 54 54 54 54 54 54 53 53 52 52 51 51 52 52 52 52 52 52 52 52 52 52 52 52 52 52 52 51 51 51 51 50 50 49 49 49 48
48 47 46 47 48 50 51 51 51 51 52 53 53 53 52 51 49 48 47 47 47 48 48 47 47 46 45 46 47 48 49 49 50 51 53 54 54 54 54 53 54 54 54 54 54 54 54 54 54 54 54 54 54 54 53 53 52 52 51 51 51 51 51 51 52 52 52 52 52 52 52 52 52 52 52 52 51 51 51 51 51 50 50 49 49 48
49 49 47 47 48 49 51 51 51 51 51 51 51 51 51 50 48 47 46 46 47 47 47 47 47 46 46 47 47 47 47 47 48 50 51 52 52 52 52 52 53 53 54 54 54 54 54 54 54 54 53 53 53 53 53 52 52 51 51 51 51 51 51 51 51 51 52 52 52 52 52 52 52 52 52 51 51 51 51 51 51 51 50 49 48 47
49 48 47 47 47 48 50 50 49 50 50 50 50 49 50 49 48 47 45 46 47 47 47 48 48 48 48 48 48 47 46 46 47 48 49 49 50 50 50 50 50 51 51 51 52 52 53 53 53 53 53 53 53 53 52 52 51 51 51 51 51 51 51 51 51 51 51 51 51 51 52 52 52 52 51 51 51 51 51 51 51 51 50 49 48 47
48 48 47 47 47 47 49 48 48 48 49 50 50 49 48 48 47 47 46 47 47 48 48 47 47 47 48 48 48 48 47 46 47 47 47 47 47 47 47 47 48 48 48 48 49 50 51 51 51 52 52 52 52 52 52 51 51 51 51 51 51 51 51 51 51 51 51 51 51 51 51 51 51 51 51 51 51 51 51 51 51 50 50 49 48 47
47 47 46 46 46 47 48 48 48 48 49 50 51 50 48 47 47 47 46 47 47 47 47 47 47 47 47 47 47 48 49 47 47 47 46 46 46 46 46 46 46 46 46 47 47 48 50 49 49 50 51 51 51 51 51 51 51 51 51 51 51 51 51 51 51 51 51 51 51 51 51 51 51 51 51 51 51 51 51 50 50 49 49 48 47 47
47 47 45 46 46 47 48 48 48 49 49 50 51 50 48 47 47 47 47 47 47 47 46 46 46 47 47 47 47 48 50 47 46 46 45 45 45 45 45 45 45 46 47 47 47 47 47 47 47 48 49 50 51 51 51 51 51 51 51 51 51 51 51 51 51 51 51 51 51 51 51 51 51 51 50 50 50 50 50 49 49 48 48 47 47 47
47 47 46 46 46 46 47 48 48 48 48 49 50 50 49 48 49 49 47 47 46 46 46 45 44 44 46 47 47 48 49 47 45 44 44 44 44 45 45 45 46 46 47 47 47 47 46 46 47 47 48 50 50 51 51 51 51 51 51 51 51 51 51 51 51 51 51 51 51 51 50 50 50 50 50 49 49 49 49 48 48 47 47 46 46 45
45 45 46 44 43 42 43 44 45 46 47 48 49 49 50 50 51 50 48 47 46 45 45 44 43 43 44 46 47 47 48 47 45 43 43 43 44 44 46 46 46 46 46 47 47 47 47 46 46 47 49 50 51 51 51 51 51 51 51 51 51 51 51 51 51 51 51 51 51 50 50 49 49 49 48 48 48 47 47 47 47 46 45 45 44 43
39 40 40 41 42 42 41 41 42 42 44 46 47 48 49 50 51 51 50 47 46 45 44 44 43 43 44 46 46 47 47 47 45 43 43 43 43 44 45 45 45 45 45 46 47 47 47 46 47 49 50 51 51 51 51 51 51 51 51 51 51 51 51 51 51 51 50 50 50 49 49 48 48 47 47 47 47 46 46 45 45 44 44 43 42 42
37 37 37 38 39 40 39 39 40 41 41 43 46 47 48 48 49 50 50 50 48 46 45 44 43 43 45 46 46 46 47 47 46 43 42 42 42 43 45 45 45 45 45 46 47 47 47 47 48 50 51 51 51 51 51 51 51 51 51 51 51 51 51 51 50 50 49 49 48 48 47 47 47 46 46 46 45 45 44 44 43 43 42 42 42 41
35 36 37 38 38 38 38 38 39 40 41 42 44 46 47 48 48 48 49 50 49 48 47 45 44 45 46 46 45 45 47 48 46 43 42 42 42 43 45 45 45 44 44 45 46 47 47 47 48 49 50 50 51 51 51 51 51 51 51 51 50 50 50 49 49 48 48 47 47 46 46 45 45 45 44 44 44 43 43 42 42 42 42 41 41 40
35 35 37 38 38 38 38 38 39 40 41 42 43 44 47 47 47 47 48 48 49 48 47 45 44 44 44 43 43 43 45 47 45 42 42 41 42 42 44 45 45 44 43 43 44 45 47 47 48 49 50 50 50 50 50 50 50 50 50 49 49 48 48 47 47 47 46 46 45 45 44 44 43 43 43 43 42 42 42 42 41 41 40 40 40 39
35 35 36 37 38 38 38 39 39 40 40 41 41 42 44 46 47 48 48 48 47 45 42 42 42 42 42 42 42 42 44 46 46 44 42 41 41 42 44 45 44 43 42 42 42 43 46 47 48 49 50 50 49 49 49 49 49 48 48 48 47 47 47 46 46 45 44 44 43 43 42 42 42 42 42 42 42 42 41 41 40 40 39 39 39 38
34 34 35 36 37 38 39 39 39 40 40 40 41 41 42 43 46 47 49 47 45 43 42 42 41 41 41 41 41 41 42 44 45 45 42 41 41 42 43 43 42 41 41 41 41 42 44 46 47 48 48 48 48 48 47 47 47 47 47 46 46 45 45 44 44 43 43 42 42 42 41 41 41 41 41 41 41 41 40 40 39 39 38 38 38 37
33 34 34 35 36 38 38 39 39 40 40 40 40 41 42 44 45 45 45 44 43 42 42 41 40 40 40 40 40 40 40 42 44 44 42 40 40 41 42 42 42 40 39 40 40 41 42 43 44 45 46 46 46 46 46 46 45 45 45 44 44 44 43 43 42 42 42 42 41 41 40 40 40 40 40 40 40 40 39 39 38 38 38 37 36 36
34 34 34 35 36 37 38 38 39 40 40 40 40 40 42 44 45 44 44 43 43 43 42 41 40 39 39 39 39 39 40 41 42 43 42 40 40 40 41 41 41 39 38 39 39 40 40 41 41 42 42 43 44 44 44 44 44 43 43 43 42 42 42 42 42 41 41 40 40 40 40 40 40 40 40 40 39 39 38 38 37 37 36 36 35 35
34 34 34 35 35 35 36 37 38 38 39 39 39 39 40 43 44 43 42 42 43 43 42 40 39 38 38 38 38 38 39 40 40 41 42 42 40 39 39 39 39 38 37 38 38 39 39 39 39 39 39 41 42 42 42 42 42 42 42 42 42 41 41 41 40 40 40 39 39 39 39 39 39 39 39 39 38 38 37 37 36 35 35 35 35 34
33 33 33 33 33 33 34 35 36 37 38 38 38 38 38 40 41 41 40 41 42 43 42 40 39 38 38 37 37 37 38 38 38 38 41 42 40 38 38 38 38 37 36 36 37 37 37 37 37 37 38 38 39 40 41 41 41 41 41 41 40 40 40 40 39 39 39 38 38 38 38 38 38 38 38 38 37 37 36 36 35 34 34 34 34 34
30 30 31 31 32 32 32 32 33 35 36 36 36 36 35 35 35 35 36 38 41 42 42 41 40 39 38 37 36 36 36 36 36 37 40 41 39 38 38 38 38 37 36 36 35 35 34 35 35 36 37 37 38 38 38 39 39 39 39 39 39 39 39 38 38 38 38 38 37 37 37 37 37 37 37 37 36 36 35 35 34 34 33 33 33 33
26 26 27 28 29 29 29 29 30 32 33 34 34 34 33 33 32 33 34 36 39 42 42 41 40 39 38 37 36 35 34 34 35 36 38 40 39 38 38 38 38 38 38 36 34 33 32 33 34 35 36 36 36 36 36 37 37 37 37 38 38 38 38 37 37 37 37 36 36 36 36 36 36 35 35 35 35 35 34 34 34 33 33 33 33 33
23 24 24 24 25 26 26 26 27 29 30 31 31 31 32 32 32 32 33 34 37 39 41 41 40 39 38 38 36 35 33 33 34 36 37 39 39 38 38 38 38 39 39 38 35 32 30 31 32 33 35 35 35 35 35 35 35 35 35 35 35 36 36 36 36 35 35 35 35 35 35 35 34 34 34 34 34 34 33 33 33 33 33 32 32 32
22 22 23 23 24 24 24 25 25 26 26 27 28 28 29 30 30 31 31 32 33 35 38 39 39 39 39 38 37 35 33 33 34 36 36 38 39 39 39 39 38 39 39 39 37 34 31 30 31 32 33 34 35 35 35 35 35 35 36 36 35 34 34 34 34 33 33 34 34 34 34 34 33 33 33 33 33 33 33 33 33 32 33 32 32 31
21 21 22 22 23 23 24 24 24 24 24 25 25 26 27 28 29 29 29 30 31 32 33 35 35 35 35 33 32 31 30 31 33 35 36 37 38 39 39 38 38 37 37 37 36 35 33 32 31 31 31 33 33 34 35 35 36 36 37 37 36 35 34 33 32 31 31 32 32 32 33 33 33 33 33 33 32 32 32 32 32 32 33 33 32 32
20 20 21 21 21 22 22 23 23 24 24 24 24 25 25 26 27 28 28 28 29 29 29 30 31 31 31 29 28 27 27 29 31 33 35 35 37 38 38 37 36 35 35 35 35 35 34 33 32 31 30 31 32 33 34 35 35 36 36 37 36 35 35 33 32 31 30 30 30 30 30 31 31 31 31 32 32 32 32 32 32 32 32 32 32 32
19 20 20 20 20 20 21 21 22 23 23 24 24 24 25 25 25 26 27 27 27 27 27 27 28 28 28 28 27 26 25 27 29 33 34 34 35 37 37 36 36 36 35 34 34 33 33 32 31 30 29 29 29 30 32 33 34 35 35 35 34 34 34 34 33 32 31 30 29 29 29 29 30 30 30 30 31 31 31 32 32 32 32 32 32 31
17 18 18 18 19 19 20 20 21 21 22 23 23 24 24 24 25 25 25 26 26 27 27 27 27 27 26 26 25 25 25 26 29 31 33 33 34 35 34 33 33 34 34 34 33 33 32 31 31 30 29 28 28 28 29 31 32 33 32 32 32 32 33 32 32 31 31 30 30 29 29 29 29 29 29 29 29 30 30 31 31 31 31 31 31 30
16 16 17 17 17 18 18 19 20 20 21 21 22 23 24 24 24 24 24 25 25 26 26 27 27 27 27 26 25 25 26 27 29 30 32 33 34 33 31 31 32 33 33 33 33 33 32 30 30 29 29 28 27 27 28 29 29 29 29 30 30 30 30 30 30 30 29 29 29 29 29 28 28 28 28 28 29 29 29 29 29 29 29 29 29 29
15 15 16 16 16 17 17 18 18 19 20 21 22 23 24 24 24 24 24 24 24 24 24 25 25 27 28 28 27 27 27 27 28 29 30 31 32 32 31 31 31 32 32 33 33 32 31 30 29 28 28 27 27 27 27 27 27 28 28 29 29 29 29 29 29 28 28 28 28 27 27 27 27 27 27 27 27 27 27 28 28 28 28 28 27 27
14 14 15 15 16 16 16 17 18 19 20 20 21 22 23 24 24 24 24 24 24 24 24 24 24 24 25 26 27 27 27 27 27 27 28 29 30 30 30 30 30 31 32 33 32 32 30 29 28 27 27 26 26 26 26 26 26 26 27 28 28 27 27 27 27 27 26 26 26 26 26 26 26 26 26 26 26 26 25 25 26 27 27 27 26 26
13 13 13 15 15 15 16 16 17 18 19 20 21 22 22 23 23 23 23 23 23 23 23 23 23 24 24 25 26 26 26 26 26 26 26 27 28 29 29 29 29 30 30 31 31 31 30 29 28 28 27 26 25 24 25 25 25 26 26 26 26 26 27 26 26 26 26 26 26 25 25 25 25 25 25 25 24 24 24 24 24 25 26 26 25 25
12 12 12 13 14 15 15 16 16 17 18 19 19 20 20 21 21 21 21 22 22 22 22 23 22 22 23 23 24 24 24 25 25 25 25 25 26 27 28 28 29 29 29 29 30 30 30 29 28 27 26 26 25 25 25 25 26 27 26 25 25 26 27 26 26 25 26 25 25 24 24 24 24 24 24 24 24 24 24 24 24 24 24 24 24 24
12 12 11 11 12 12 13 14 15 16 17 17 17 18 19 20 20 20 20 20 20 20 20 21 20 20 20 21 22 22 23 24 24 24 24 24 25 25 26 27 28 28 28 28 29 29 29 29 28 28 27 27 26 26 25 26 26 26 25 25 25 26 26 26 25 25 24 24 24 24 23 22 22 22 23 23 23 23 24 24 24 24 23 23 23 23
11 11 11 11 11 11 12 13 14 15 15 15 16 16 17 18 19 19 19 19 19 19 20 19 19 19 19 19 20 20 21 22 23 24 24 24 24 24 25 25 26 27 27 27 26 27 27 28 27 27 27 27 27 26 25 25 25 24 24 24 24 24 23 23 24 24 24 24 23 22 22 21 21 22 22 22 22 23 24 23 23 23 23 22 22 22
11 11 11 11 11 11 11 11 11 12 13 14 14 15 15 16 18 18 18 18 18 18 18 18 18 18 18 18 18 18 19 20 21 22 23 24 24 24 24 24 24 25 25 25 25 25 25 25 25 25 25 26 25 25 24 23 23 22 22 22 21 20 20 22 23 23 23 23 22 22 22 22 21 21 21 21 21 22 22 22 22 22 22 22 22 21
11 11 11 11 11 10 10 10 10 11 11 12 13 13 14 15 16 17 17 16 16 17 17 17 17 17 17 17 17 17 17 18 19 19 20 21 23 23 23 22 23 23 24 24 24 24 24 24 24 24 24 24 24 23 23 22 22 21 21 21 21 21 22 23 23 22 21 21 21 21 21 22 22 21 20 20 20 20 20 20 20 20 21 21 21 20
12 11 11 11 10 10 10 10 10 9 10 11 11 12 13 13 14 14 15 15 15 15 15 16 16 16 15 15 15 15 15 15 16 16 17 17 18 19 20 20 21 21 21 22 23 23 23 23 23 23 23 22 22 22 22 21 20 20 20 20 20 20 21 21 21 20 20 20 20 20 21 21 21 20 19 19 18 19 19 19 19 19 20 20 20 19
11 11 11 11 10 10 10 10 9 8 8 9 10 11 12 12 12 12 12 13 12 12 13 13 14 14 13 13 13 13 13 13 14 14 15 15 15 15 16 17 19 20 20 20 21 21 22 22 22 21 21 20 20 20 20 20 20 19 19 19 20 20 20 20 20 20 20 20 20 20 20 20 20 18 18 17 17 17 18 18 19 19 19 19 19 18
11 11 11 11 11 11 10 10 9 9 8 8 9 10 11 12 12 12 11 11 11 11 11 11 11 11 11 11 11 12 12 11 12 12 13 13 13 14 14 15 15 17 18 19 20 20 21 22 22 21 20 19 19 18 18 19 19 19 19 19 19 19 19 19 20 20 20 19 20 20 20 19 18 17 16 16 16 16 16 17 18 18 19 19 18 18
11 11 11 11 11 11 11 11 10 10 9 9 9 9 10 11 13 13 11 11 11 11 11 10 10 10 10 11 11 11 12 11 11 11 12 12 12 13 13 14 14 15 15 17 18 19 21 22 23 22 20 19 18 18 17 18 19 19 20 20 19 19 19 19 19 19 18 19 20 20 20 18 17 16 16 16 15 15 15 15 16 17 18 18 18 18
11 11 11 11 11 11 11 11 11 11 10 10 9 9 10 10 11 11 11 11 11 11 11 10 10 10 10 10 11 11 11 11 11 11 11 12 12 12 13 13 13 13 14 15 16 17 19 20 22 23 23 22 21 20 18 19 19 20 20 19 19 19 18 18 17 17 17 17 18 19 19 18 17 16 16 15 15 14 14 14 15 15 16 17 18 18
11 11 11 11 11 11 11 11 11 11 11 11 10 10 10 10 10 11 11 11 11 11 11 11 11 11 11 11 11 11 11 11 11 11 11 12 12 12 12 13 13 12 12 13 14 15 17 18 19 20 21 23 23 21 19 19 19 19 19 18 18 18 17 17 17 16 17 16 16 17 18 17 16 15 15 15 14 14 13 13 13 13 14 15 16 17